Flag for U.S.A. Weather past 2 weeks in Sheboygan, Wisconsin, U.S.A.

Now
80 °F

Sunny.


Feels Like: 80 °F
Forecast: 66 / 82 °F
Wind: 3 mph from Northwest

Location: Sheboygan County Memorial Airport

Current Time: Aug 1, 2015 at 7:25:05 PM

Latest Report: Aug 1, 2015 at 6:53 PM


Visibility: 10 mi

Pressure: 29.84 "Hg

Humidity: 42%

Dew point: 55 °F

Location of SheboyganLocation

Historic Weather in Sheboygan — Graph

°F

Sheboygan temperature yesterday

Maximum temperature yesterday: 81 °F (at 2:53 PM)
Minimum temperature yesterday: 62 °F (at 4:53 AM)
Average temperature yesterday: 73 °F

Past Weeks' High & Low Weather Summary

 TemperatureHumidityPressure
High85 °F (Jul 17, 6:53 PM)100% (Jul 28, 4:53 AM)30.05 "Hg (Jul 28, 4:53 AM)
Low56 °F (Jul 22, 1:53 AM)32% (Jul 29, 3:53 PM)29.69 "Hg (Jul 20, 3:53 PM)
Average73 °F69%29.91 "Hg
* Reported Jul 17 5:53 PM — Aug 1 5:53 PM, Sheboygan, Weather by CustomWeather, © 2015

Note: Actual official high and low records may vary slightly from our data, if they occured in-between our weather recording intervals... More about our weather records

Advertising

Sheboygan weather history for previous 24 hours

 ConditionsComfort  
Time TempWeatherWind HumidityBarometerVisibility
5:53 PM
Sat, Aug 1
81 °FSunny.7 mph41%29.86 "Hg10 mi
3:53 PM82 °FPassing clouds.9 mph37%29.88 "Hg10 mi
2:53 PM81 °FSunny.14 mph38%29.89 "Hg10 mi
1:53 PM81 °FSunny.14 mph37%29.90 "Hg10 mi
12:53 PM81 °FSunny.9 mph37%29.91 "Hg10 mi
11:53 AM80 °FSunny.15 mph36%29.93 "Hg10 mi
10:53 AM78 °FPassing clouds.10 mph40%29.93 "Hg10 mi
9:53 AM75 °FSunny.12 mph50%29.93 "Hg10 mi
8:53 AM72 °FSunny.8 mph57%29.93 "Hg10 mi
7:53 AM68 °FSunny.8 mph65%29.93 "Hg10 mi
6:53 AM64 °FSunny.8 mph70%29.92 "Hg10 mi
5:53 AM61 °FClear.8 mph72%29.92 "Hg10 mi
4:53 AM61 °FClear.8 mph75%29.92 "Hg10 mi
3:53 AM61 °FClear.7 mph75%29.92 "Hg10 mi
2:53 AM62 °FClear.8 mph75%29.92 "Hg10 mi
1:53 AM61 °FPassing clouds.12 mph83%29.93 "Hg10 mi
12:53 AM63 °FClear.6 mph75%29.94 "Hg10 mi
11:53 PM
Fri, Jul 31
68 °FLight rain. Mostly cloudy.5 mph63%29.93 "Hg10 mi
10:53 PM69 °FOvercast.7 mph61%29.94 "Hg10 mi
9:53 PM71 °FMostly cloudy.7 mph55%29.93 "Hg10 mi
8:53 PM71 °FSunny.6 mph53%29.90 "Hg10 mi
7:53 PM75 °FSunny.7 mph47%29.89 "Hg10 mi
Weather by CustomWeather, © 2015

See weather overviewHow to use our weather pages